星链-6050 (STARLINK-6050 )

导读

STARLINK-6050是美国SpaceX公司星链(Starlink)星座中的低轨通信卫星,于2023年5月10日发射。卫星运行在约550km近地轨道,采用平板设计与氪气霍尔推进器,搭载相控阵天线与激光星间链路,依托Ku/Ka频段提供高速互联网服务。作为星链组网卫星,它支持低时延全球宽带接入,可兼容直连手机业务,服役末期将主动离轨再入大气层焚毁。

Basic Information
目录编号:
56458
目录名称:
STARLINK-6050
国际标识:
2023-064L
轨道中心:
EARTH
卫星名称:
星链-6050
卫星全名:
星链-6050 (STARLINK-6050 )
卫星状态:
在轨 (已飞行1213 天)
发射日期:
2023-05-10 UTC
国别 :
美国 (US)
星等 :
--
Orbit Information
数据来源 国际轨道数据
星历时间: 2026-09-04T19:14:22+0800
9小时前
查看轨道信息
半长轴: 6950.198km
偏心率: 0.0002461
轨道倾角: 70.000°
近地点辐角 262.946°
升交点赤经 53.760°
平近点角 97.142°
近地点: 570.35km
远地点: 573.772km
周期: 96.107分钟
每日圈数: 14.983285
Detailed Information
固有亮度:
5
最大亮度:
2.5
卫星平台:
Starlink v1.5
覆盖范围:
全球
运营商:
太空探索技术公司
运营商所在国:
美国
制造商(研发单位):
太空探索技术公司
制造商所在国:
美国
使用方式:
暂无
Satellite Introduction
星链(Starlink)计划是由太空探索技术公司(SpaceX)提出的一个巨型低轨卫星互联网星座项目,计划在2019年至2024年间在太空搭建由约1.2万颗卫星组成的“星链”网络,其中1584颗将部署在地球上空550千米处的近地轨道,并从2020年开始工作。该卫星仍在工作。
2D Orbit Map
3D Orbit Map
Orbit Altitude Analysis Chart
Orbit Inclination Analysis Chart
Orbit Comprehensive Analysis Chart
View Comprehensive Chart
Conjunction Data List
Event ID Objects TCA Miss Dist (km) Collision Risk Probability Collision Risk Index (CRI) Action
CDM_260905-114205-645806-057521
HAWK-10C (60575)
2026-09-05T
11:42:20+0000
2.267 km
极远距离
1.769903E-6 低风险 0.4
CDM_260903-020204-003705-645823
2026-09-03T
02:02:44+0000
2.607 km
极远距离
1.598453E-6 低风险 0.39